Location: Jackson
(42.2460°N, 84.4010°W)
Time: 08:31:43
(UTC-05:00)

ISS - Pass Details

Date: 21 January 2026
Orbit: 413 x 428 km, 51.6° (Epoch: 13 February)

Event Time Altitude Azimuth Distance (km) Brightness Sun altitude
Rises 18:49:54 0° 298° (WNW) 2,363 0.8 -13.3°
Reaches altitude 10° 18:52:34 10° 320° (NW) 1,503 -0.6 -13.7°
Maximum altitude 18:54:49 17° 2° (N) 1,171 -1.7 -14.1°
Enters shadow 18:55:45 15° 23° (NNE) 1,237 -1.7 -14.3°
